THORAD AGENA D DEB, 4765

Orbit data source: Space-Track

THORAD AGENA D DEB, 4765 is space debris in SSO originally from a launch on Wed, 08 Apr 1970 UTC launched from the Air Force Western Test Range (AFWTR). Debris objects in space refer to the collection of defunct objects orbiting the Earth. Examples of debris include non-operational satellites, rocket bodies, and fragments generated from explosions, collisions, or faulty payload assembly.

Loading next visibility...
Identifier
4765, 1970-025DK
Orbit
SSO
Country
Flag of USUS
Related business
Manufacturer
Unknown
Mission
Spacecraft
Bus & Motor
Unknown
Mass
Unknown
Launch date (UTC)
1970-04-08 (56 years ago)
Launch vehicle
Unknown
Launch site
Air Force Western Test Range (AFWTR)
Object type
Payload
Rocket body
Debris
Shape & HBR
Unknown shape, 0.2 m
Radar Cross Section
Medium (>0.1 m² and <1 m²)

Expand to show TLE details & history
Last TLE update: 6 hours ago

TLE from 6 hours ago
0 THORAD AGENA D DEB
1  4765U 70025DK  25299.77737969  .00195062  00000-0  55111-2 0  9996
2  4765  99.5688   8.4147 0008852  60.5771 299.6348 15.35505416874546
Epoch: 2025-10-26T18:39Z
TLE epoch observation values (Epoch: 2025-10-26T18:39:25.605Z)
Latitude
-0.00001°
Longitude
53.16931°
Altitude
459.47 km
Speed
7.639 km/s
True Right ascension
00h 33m 39s
True Declination
0° 00' 00"
Sunlit
Object was in full shadow at epoch
Visualization orbit readout
Latitude
Unknown
Longitude
Unknown
Altitude
Unknown
Speed
Unknown
Apparent Right ascension
Unknown
Apparent Declination
Unknown
Sunlit
N/A
Visualization observer readout
Local Sidereal Time
20:12:50
Azimuth
Unknown
Elevation
Unknown
Doppler factor
Unknown
Orbital elements
Apogee altitude
462.521 km
Perigee altitude
450.421 km
Semi-major axis
6,834.608 km
Eccentricity
0.00089
Inclination
99.5688°
RAAN
8.4147°
Arg. of periapsis
60.5771°
True anomaly
299.54658°
Mean anomaly
299.6348°
Eccentric anomaly
299.5907°
Mean motion
3.84125 °/min
Orbital period
93.72 mins
BSTAR
0.0055111
Loading maneuver chart data...
Computing Atmospheric mass density...

Documentation

Showing up to 5 results
|